| time (UTC) | temp C | wind direction | speed KPH | gust KPH | rain 1hr cm | rain 24hr cm | rain mn cm | humidity % | barometer mb |
| 20260901074947 | 26 | 270 | 27.4 | 32.2 | 0.00 | 0.10 | 0.00 | 50 | 1056.4 |
| 20260901074447 | 26 | 180 | 22.5 | 22.5 | 0.00 | 0.10 | 0.00 | 51 | 1040.6 |
| 20260901073947 | 26 | 247 | 12.9 | 25.7 | 0.00 | 0.10 | 0.00 | 51 | 1065.9 |
| 20260901073447 | 26 | 270 | 9.7 | 27.4 | 0.00 | 0.10 | 0.00 | 52 | 1017.7 |
| 20260901072947 | 26 | 270 | 6.4 | 25.7 | 0.00 | 0.10 | 0.00 | 51 | 1069.0 |
| 20260901072446 | 26 | 247 | 9.7 | 29.0 | 0.00 | 0.10 | 0.00 | 50 | 1059.5 |
| 20260901071947 | 27 | 180 | 19.3 | 29.0 | 0.00 | 0.10 | 0.00 | 51 | 1056.0 |
| 20260901071447 | 26 | 225 | 14.5 | 19.3 | 0.00 | 0.10 | 0.00 | 53 | 1025.6 |
| 20260901070947 | 26 | 270 | 16.1 | 22.5 | 0.00 | 0.10 | 0.00 | 52 | 1078.4 |
| 20260901070447 | 26 | 202 | 9.7 | 30.6 | 0.00 | 0.10 | 0.00 | 53 | 1059.5 |
| 20260901065947 | 26 | 247 | 24.1 | 24.1 | 0.00 | 0.10 | 0.00 | 54 | 1059.5 |
| 20260901065447 | 26 | 225 | 3.2 | 17.7 | 0.00 | 0.10 | 0.00 | 56 | 1062.7 |
| 20260901065146 | 26 | 225 | 12.9 | 20.9 | 0.00 | 0.10 | 0.00 | 57 | 1069.0 |
| 20260901064947 | 26 | 247 | 6.4 | 20.9 | 0.00 | 0.10 | 0.00 | 57 | 1061.1 |
| 20260901063947 | 24 | 225 | 12.9 | 16.1 | 0.00 | 0.10 | 0.00 | 63 | 1013.0 |
| 20260901062947 | 22 | 225 | 1.6 | 16.1 | 0.00 | 0.10 | 0.00 | 66 | 1020.9 |
| 20260901062447 | 22 | 247 | 6.4 | 29.0 | 0.00 | 0.10 | 0.00 | 63 | 1081.5 |
| 20260901061947 | 23 | 247 | 12.9 | 30.6 | 0.00 | 0.10 | 0.00 | 61 | 1043.8 |
| 20260901061846 | 23 | 247 | 17.7 | 30.6 | 0.00 | 0.10 | 0.00 | 61 | 1054.8 |
| 20260901061447 | 24 | 247 | 4.8 | 20.9 | 0.00 | 0.10 | 0.00 | 63 | 1053.2 |
| 20260901060947 | 23 | 202 | 16.1 | 22.5 | 0.00 | 0.10 | 0.00 | 65 | 1065.8 |
| 20260901060447 | 23 | 202 | 6.4 | 29.0 | 0.00 | 0.10 | 0.00 | 65 | 1019.3 |
| 20260901055947 | 23 | 225 | 6.4 | 25.7 | 0.00 | 0.10 | 0.00 | 65 | 1040.6 |
| 20260901055447 | 24 | 202 | 12.9 | 19.3 | 0.00 | 0.10 | 0.00 | 66 | 1078.4 |
| 20260901054947 | 23 | 247 | 17.7 | 29.0 | 0.00 | 0.10 | 0.00 | 68 | 1022.5 |
| 20260901054546 | 23 | 202 | 4.8 | 19.3 | 0.00 | 0.10 | 0.00 | 71 | 1009.9 |
| 20260901054447 | 23 | 292 | 11.3 | 19.3 | 0.00 | 0.10 | 0.00 | 73 | 1070.2 |
| 20260901053947 | 22 | 247 | 3.2 | 17.7 | 0.00 | 0.10 | 0.00 | 77 | 1013.0 |
| 20260901053447 | 21 | 225 | 11.3 | 19.3 | 0.00 | 0.10 | 0.00 | 80 | 1070.5 |
| 20260901052947 | 20 | 202 | 12.9 | 25.7 | 0.00 | 0.10 | 0.00 | 82 | 1062.7 |
| 20260901052447 | 20 | 247 | 6.4 | 19.3 | 0.00 | 0.10 | 0.00 | 83 | 1091.0 |
| 20260901051447 | 19 | 202 | 9.7 | 19.3 | 0.00 | 0.10 | 0.00 | 88 | 1061.1 |
| 20260901051247 | 19 | 180 | 6.4 | 17.7 | 0.00 | 0.10 | 0.00 | 90 | 1068.9 |
| 20260901050947 | 19 | 225 | 14.5 | 17.7 | 0.00 | 0.10 | 0.00 | 91 | 1075.3 |
| 20260901050447 | 18 | 157 | 3.2 | 16.1 | 0.00 | 0.10 | 0.00 | 93 | 1069.0 |
| 20260901045947 | 17 | 247 | 6.4 | 12.9 | 0.00 | 0.10 | 0.00 | 92 | 1056.4 |
| 20260901045447 | 16 | 225 | 8.0 | 17.7 | 0.00 | 0.10 | 0.00 | 91 | 1065.8 |
| 20260901044947 | 16 | 225 | 8.0 | 16.1 | 0.00 | 0.10 | 0.00 | 91 | 1059.5 |
| 20260901044447 | 16 | 225 | 6.4 | 16.1 | 0.00 | 0.10 | 0.00 | 91 | 1070.5 |
| 20260901043947 | 16 | 225 | 11.3 | 17.7 | 0.00 | 0.10 | 0.00 | 91 | 1076.8 |
| 20260901043447 | 16 | 225 | 14.5 | 16.1 | 0.00 | 0.10 | 0.00 | 91 | 1078.4 |
| 20260901042947 | 16 | 202 | 8.0 | 16.1 | 0.00 | 0.10 | 0.00 | 91 | 1076.8 |
| 20260901042448 | 16 | 202 | 16.1 | 17.7 | 0.00 | 0.10 | 0.00 | 91 | 1072.1 |
| 20260901041948 | 16 | 202 | 11.3 | 19.3 | 0.00 | 0.10 | 0.00 | 91 | 1068.9 |
| 20260901041448 | 16 | 202 | 16.1 | 19.3 | 0.00 | 0.10 | 0.00 | 91 | 1056.4 |
| 20260901040948 | 16 | 202 | 12.9 | 16.1 | 0.00 | 0.10 | 0.00 | 91 | 1069.0 |
| 20260901040647 | 16 | 270 | 14.5 | 16.1 | 0.00 | 0.10 | 0.00 | 91 | 1095.6 |
| 20260901040448 | 16 | 225 | 6.4 | 12.9 | 0.00 | 0.10 | 0.00 | 91 | 1028.0 |
| 20260901035948 | 16 | 202 | 6.4 | 16.1 | 0.00 | 0.10 | 0.00 | 91 | 1028.7 |
| 20260901035448 | 16 | 202 | 12.9 | 12.9 | 0.00 | 0.10 | 0.00 | 91 | 1072.1 |
| 20260901034948 | 16 | 202 | 9.7 | 11.3 | 0.00 | 0.10 | 0.00 | 91 | 1059.5 |
| 20260901034448 | 16 | 180 | 9.7 | 12.9 | 0.00 | 0.10 | 0.00 | 91 | 1059.5 |
| 20260901033948 | 16 | 225 | 6.4 | 9.7 | 0.00 | 0.10 | 0.00 | 91 | 1053.3 |
| 20260901033448 | 16 | 202 | 11.3 | 11.3 | 0.00 | 0.10 | 0.00 | 91 | 1065.8 |
| 20260901033347 | 16 | 247 | 8.0 | 11.3 | 0.00 | 0.10 | 0.00 | 91 | 994.9 |
| 20260901032948 | 16 | 202 | 6.4 | 11.3 | 0.00 | 0.10 | 0.00 | 91 | 1046.9 |
| 20260901032448 | 16 | 202 | 3.2 | 16.1 | 0.00 | 0.10 | 0.00 | 91 | 1073.7 |
| 20260901031948 | 16 | 180 | 4.8 | 12.9 | 0.00 | 0.10 | 0.00 | 91 | 1078.3 |
| 20260901031448 | 16 | 225 | 6.4 | 8.0 | 0.00 | 0.10 | 0.00 | 91 | 1059.5 |
| 20260901030948 | 16 | 180 | 3.2 | 9.7 | 0.00 | 0.10 | 0.00 | 91 | 1065.8 |
| 20260901030448 | 16 | 180 | 3.2 | 8.0 | 0.00 | 0.10 | 0.00 | 91 | 1065.8 |
| 20260901030047 | 16 | 225 | 1.6 | 9.7 | 0.00 | 0.10 | 0.00 | 91 | 1050.0 |
| 20260901025948 | 16 | 180 | 1.6 | 9.7 | 0.00 | 0.10 | 0.00 | 91 | 1050.0 |
| 20260901025448 | 16 | 180 | 6.4 | 11.3 | 0.00 | 0.10 | 0.00 | 91 | 1056.4 |
| 20260901024948 | 16 | 225 | 8.0 | 14.5 | 0.00 | 0.10 | 0.00 | 91 | 1068.9 |
| 20260901024448 | 16 | 202 | 14.5 | 16.1 | 0.00 | 0.10 | 0.00 | 91 | 1034.4 |
| 20260901023948 | 16 | 225 | 6.4 | 9.7 | 0.00 | 0.10 | 0.00 | 91 | 1059.5 |
| 20260901023448 | 16 | 225 | 9.7 | 9.7 | 0.00 | 0.10 | 0.00 | 91 | 1064.2 |
| 20260901022948 | 16 | 202 | 8.0 | 12.9 | 0.00 | 0.10 | 0.00 | 91 | 1072.1 |
| 20260901022747 | 16 | 202 | 3.2 | 12.9 | 0.00 | 0.10 | 0.00 | 91 | 1011.4 |
| 20260901022448 | 16 | 202 | 12.9 | 12.9 | 0.00 | 0.10 | 0.00 | 91 | 1070.8 |
| 20260901022022 | 16 | 225 | 3.2 | 8.0 | 0.00 | 0.10 | 0.00 | 91 | 1078.0 |
| 20260901021948 | 16 | 225 | 3.2 | 8.0 | 0.00 | 0.10 | 0.00 | 91 | 1078.0 |
| 20260901021448 | 16 | 225 | 3.2 | 9.7 | 0.00 | 0.10 | 0.00 | 91 | 1065.8 |
| 20260901020948 | 16 | 225 | 6.4 | 8.0 | 0.00 | 0.10 | 0.00 | 91 | 1062.7 |
| 20260901020448 | 16 | 202 | 6.4 | 6.4 | 0.00 | 0.10 | 0.00 | 90 | 1031.8 |
| 20260901015948 | 16 | 225 | 4.8 | 8.0 | 0.00 | 0.10 | 0.00 | 90 | 1065.8 |
| 20260901015447 | 16 | 202 | 3.2 | 8.0 | 0.00 | 0.10 | 0.00 | 90 | 1065.8 |
| 20260901014948 | 16 | 202 | 4.8 | 9.7 | 0.00 | 0.10 | 0.00 | 90 | 1065.8 |
| 20260901014448 | 16 | 180 | 3.2 | 53.1 | 0.00 | 0.10 | 0.00 | 90 | 1065.8 |
| 20260901013948 | 16 | 247 | 6.4 | 8.0 | 0.00 | 0.10 | 0.00 | 90 | 1068.9 |
| 20260901013448 | 16 | 180 | 8.0 | 9.7 | 0.00 | 0.10 | 0.00 | 90 | 1062.6 |
| 20260901012948 | 16 | 180 | 4.8 | 8.0 | 0.00 | 0.10 | 0.00 | 90 | 1069.0 |
| 20260901012448 | 16 | 202 | 3.2 | 6.4 | 0.00 | 0.10 | 0.00 | 90 | 1078.4 |
| 20260901012147 | 16 | 180 | 1.6 | 6.4 | 0.00 | 0.10 | 0.00 | 90 | 1062.7 |
| 20260901011948 | 16 | 180 | 1.6 | 6.4 | 0.00 | 0.10 | 0.00 | 90 | 1076.8 |
| 20260901011448 | 16 | 202 | 1.6 | 6.4 | 0.00 | 0.10 | 0.00 | 90 | 1069.0 |
| 20260901010948 | 16 | 180 | 3.2 | 6.4 | 0.00 | 0.10 | 0.00 | 90 | 1061.3 |
| 20260901010448 | 16 | 202 | 3.2 | 8.0 | 0.00 | 0.10 | 0.00 | 90 | 1023.3 |
| 20260901005948 | 16 | 157 | 4.8 | 6.4 | 0.00 | 0.10 | 0.00 | 90 | 1064.2 |
| 20260901005448 | 16 | 157 | 1.6 | 8.0 | 0.00 | 0.10 | 0.00 | 90 | 1069.0 |
| 20260901004948 | 17 | 180 | 1.6 | 6.4 | 0.00 | 0.10 | 0.00 | 90 | 1056.4 |
| 20260901004847 | 17 | 157 | 3.2 | 6.4 | 0.00 | 0.10 | 0.00 | 90 | 1079.9 |
| 20260901004448 | 17 | 180 | 0.0 | 6.4 | 0.00 | 0.10 | 0.00 | 90 | 1056.4 |
| 20260901003948 | 17 | 135 | 1.6 | 6.4 | 0.00 | 0.10 | 0.00 | 90 | 1038.2 |
| 20260901003448 | 17 | 202 | 1.6 | 8.0 | 0.00 | 0.10 | 0.00 | 90 | 1019.3 |
| 20260901002948 | 17 | 180 | 8.0 | 9.7 | 0.00 | 0.10 | 0.00 | 90 | 1070.5 |
| 20260901002448 | 17 | 202 | 4.8 | 8.0 | 0.00 | 0.10 | 0.00 | 90 | 1062.7 |
| 20260901001948 | 17 | 180 | 1.6 | 4.8 | 0.00 | 0.10 | 0.00 | 90 | 1062.7 |
| 20260901001547 | 17 | 180 | 3.2 | 8.0 | 0.00 | 0.10 | 0.00 | 90 | 1018.9 |
| 20260901001448 | 17 | 157 | 3.2 | 8.0 | 0.00 | 0.10 | 0.00 | 90 | 1068.9 |
| 20260901000948 | 17 | 202 | 0.0 | 8.0 | 0.00 | 0.10 | 0.00 | 90 | 1064.5 |
| 20260901000450 | 17 | 180 | 3.2 | 6.4 | 0.00 | 0.10 | 0.00 | 90 | 1067.4 |
| 20260831235948 | 17 | 157 | 1.6 | 6.4 | 0.00 | 0.10 | 0.00 | 90 | 1072.1 |
| 20260831235448 | 17 | 180 | 6.4 | 6.4 | 0.00 | 0.10 | 0.00 | 90 | 1018.4 |
| 20260831234948 | 17 | 180 | 3.2 | 6.4 | 0.00 | 0.10 | 0.00 | 90 | 1062.6 |
| 20260831234448 | 17 | 180 | 1.6 | 6.4 | 0.00 | 0.10 | 0.00 | 90 | 1035.1 |
| 20260831234247 | 17 | 157 | 4.8 | 6.4 | 0.00 | 0.10 | 0.00 | 90 | 1084.7 |
| 20260831233948 | 17 | 157 | 6.4 | 6.4 | 0.00 | 0.10 | 0.00 | 90 | 1032.8 |
| 20260831233448 | 17 | 157 | 6.4 | 9.7 | 0.00 | 0.10 | 0.00 | 90 | 1075.2 |
| 20260831232948 | 17 | 202 | 8.0 | 9.7 | 0.00 | 0.10 | 0.00 | 89 | 1076.8 |
| 20260831232448 | 17 | 180 | 4.8 | 9.7 | 0.00 | 0.10 | 0.00 | 89 | 1062.7 |
| 20260831231948 | 17 | 225 | 4.8 | 9.7 | 0.00 | 0.10 | 0.00 | 89 | 1072.1 |
| 20260831231448 | 17 | 225 | 3.2 | 9.7 | 0.00 | 0.10 | 0.00 | 89 | 1062.7 |
| 20260831230947 | 17 | 180 | 6.4 | 8.0 | 0.00 | 0.10 | 0.00 | 89 | 1062.7 |
| 20260831230448 | 17 | 157 | 4.8 | 6.4 | 0.00 | 0.10 | 0.00 | 89 | 1067.4 |
| 20260831225948 | 17 | 225 | 1.6 | 6.4 | 0.00 | 0.10 | 0.00 | 89 | 1043.7 |
| 20260831225448 | 17 | 157 | 4.8 | 8.0 | 0.00 | 0.10 | 0.00 | 89 | 1078.4 |
| 20260831224948 | 17 | 180 | 0.0 | 8.0 | 0.00 | 0.10 | 0.00 | 89 | 1081.5 |
| 20260831224448 | 17 | 180 | 3.2 | 9.7 | 0.00 | 0.10 | 0.00 | 89 | 1030.2 |
| 20260831223948 | 17 | 247 | 6.4 | 14.5 | 0.00 | 0.10 | 0.00 | 89 | 1065.8 |
| 20260831223647 | 17 | 202 | 3.2 | 14.5 | 0.00 | 0.10 | 0.00 | 89 | 1086.3 |
| 20260831223448 | 17 | 180 | 6.4 | 6.4 | 0.00 | 0.10 | 0.00 | 89 | 1059.5 |
| 20260831222948 | 17 | 180 | 3.2 | 8.0 | 0.00 | 0.10 | 0.00 | 89 | 1062.7 |
| 20260831222448 | 17 | 157 | 6.4 | 9.7 | 0.00 | 0.10 | 0.00 | 89 | 1080.0 |
| 20260831221948 | 17 | 112 | 3.2 | 6.4 | 0.00 | 0.10 | 0.00 | 89 | 1072.1 |
| 20260831221448 | 17 | 180 | 3.2 | 8.0 | 0.00 | 0.10 | 0.00 | 88 | 1053.2 |
| 20260831220948 | 17 | 157 | 3.2 | 6.4 | 0.00 | 0.10 | 0.00 | 88 | 1090.9 |
| 20260831220519 | 17 | 157 | 3.2 | 4.8 | 0.00 | 0.10 | 0.00 | 88 | 1078.4 |
| 20260831220448 | 17 | 157 | 3.2 | 4.8 | 0.00 | 0.10 | 0.00 | 88 | 1078.4 |
| 20260831220347 | 17 | 157 | 0.0 | 6.4 | 0.00 | 0.10 | 0.00 | 88 | 1075.2 |
| 20260831215948 | 17 | 180 | 3.2 | 6.4 | 0.00 | 0.10 | 0.00 | 88 | 1075.2 |
| 20260831215448 | 17 | 202 | 6.4 | 11.3 | 0.00 | 0.10 | 0.00 | 88 | 1069.0 |
| 20260831214948 | 17 | 247 | 6.4 | 11.3 | 0.00 | 0.10 | 0.00 | 88 | 1040.5 |
| 20260831214448 | 17 | 180 | 3.2 | 11.3 | 0.00 | 0.10 | 0.00 | 88 | 1072.1 |
| 20260831213948 | 17 | 157 | 4.8 | 8.0 | 0.00 | 0.10 | 0.00 | 88 | 1062.7 |
| 20260831213448 | 17 | 157 | 4.8 | 6.4 | 0.00 | 0.10 | 0.00 | 88 | 1062.7 |
| 20260831213047 | 17 | 135 | 3.2 | 6.4 | 0.00 | 0.10 | 0.00 | 88 | 1056.4 |
| 20260831212948 | 17 | 157 | 0.0 | 6.4 | 0.00 | 0.10 | 0.00 | 88 | 1050.1 |
| 20260831212448 | 17 | 180 | 3.2 | 8.0 | 0.00 | 0.10 | 0.00 | 88 | 1062.6 |
| 20260831211948 | 17 | 135 | 4.8 | 6.4 | 0.00 | 0.10 | 0.00 | 88 | 1058.0 |
| 20260831211448 | 17 | 157 | 4.8 | 9.7 | 0.00 | 0.10 | 0.00 | 88 | 999.5 |
| 20260831210948 | 17 | 180 | 3.2 | 11.3 | 0.00 | 0.10 | 0.00 | 87 | 1024.0 |
| 20260831210448 | 17 | 157 | 6.4 | 8.0 | 0.00 | 0.10 | 0.00 | 87 | 1084.7 |
| 20260831205948 | 17 | 157 | 4.8 | 8.0 | 0.00 | 0.10 | 0.00 | 87 | 1053.2 |
| 20260831205747 | 17 | 157 | 4.8 | 6.4 | 0.00 | 0.10 | 0.00 | 87 | 1062.7 |
| 20260831205448 | 17 | 225 | 3.2 | 11.3 | 0.00 | 0.10 | 0.00 | 87 | 1027.1 |
| 20260831204948 | 17 | 180 | 3.2 | 9.7 | 0.00 | 0.10 | 0.00 | 87 | 1076.8 |
| 20260831204448 | 18 | 157 | 1.6 | 12.9 | 0.00 | 0.10 | 0.00 | 87 | 1051.6 |
| 20260831203948 | 18 | 180 | 6.4 | 12.9 | 0.00 | 0.10 | 0.00 | 87 | 1090.9 |
| 20260831203448 | 18 | 135 | 3.2 | 9.7 | 0.00 | 0.10 | 0.00 | 87 | 1065.8 |
| 20260831202948 | 18 | 180 | 3.2 | 14.5 | 0.00 | 0.10 | 0.00 | 87 | 1065.8 |
| 20260831202447 | 18 | 135 | 8.0 | 8.0 | 0.00 | 0.10 | 0.00 | 86 | 1014.5 |
| 20260831201948 | 18 | 157 | 3.2 | 8.0 | 0.00 | 0.10 | 0.00 | 86 | 1072.1 |
| 20260831201448 | 18 | 180 | 9.7 | 9.7 | 0.00 | 0.10 | 0.00 | 86 | 1050.7 |
| 20260831200948 | 18 | 135 | 4.8 | 11.3 | 0.00 | 0.10 | 0.00 | 86 | 1080.2 |
| 20260831200449 | 18 | 135 | 3.2 | 9.7 | 0.00 | 0.10 | 0.00 | 86 | 1070.7 |
| 20260831195948 | 18 | 135 | 4.8 | 9.7 | 0.00 | 0.10 | 0.00 | 86 | 1075.2 |
| 20260831195448 | 18 | 135 | 6.4 | 8.0 | 0.00 | 0.10 | 0.00 | 85 | 1081.5 |
| 20260831195147 | 18 | 135 | 4.8 | 8.0 | 0.00 | 0.10 | 0.00 | 85 | 1033.4 |
| 20260831194948 | 18 | 157 | 3.2 | 8.0 | 0.00 | 0.10 | 0.00 | 85 | 1047.6 |
| 20260831194448 | 18 | 135 | 1.6 | 6.4 | 0.00 | 0.10 | 0.00 | 85 | 1053.2 |
| 20260831193948 | 18 | 157 | 3.2 | 8.0 | 0.00 | 0.10 | 0.00 | 85 | 1050.1 |
| 20260831193448 | 18 | 157 | 4.8 | 8.0 | 0.00 | 0.10 | 0.00 | 85 | 1072.1 |
| 20260831192948 | 18 | 180 | 1.6 | 6.4 | 0.00 | 0.10 | 0.00 | 85 | 1069.0 |
| 20260831192449 | 18 | 157 | 3.2 | 8.0 | 0.00 | 0.10 | 0.00 | 84 | 1075.2 |
| 20260831191948 | 18 | 157 | 4.8 | 11.3 | 0.00 | 0.10 | 0.00 | 84 | 1091.5 |
| 20260831191847 | 18 | 157 | 6.4 | 11.3 | 0.00 | 0.10 | 0.00 | 84 | 1088.3 |
| 20260831191448 | 18 | 135 | 0.0 | 11.3 | 0.00 | 0.10 | 0.00 | 84 | 1081.4 |
| 20260831190948 | 18 | 180 | 8.0 | 11.3 | 0.00 | 0.10 | 0.00 | 84 | 1027.1 |
| 20260831190448 | 18 | 180 | 6.4 | 12.9 | 0.00 | 0.10 | 0.00 | 84 | 1065.8 |
| 20260831185949 | 18 | 202 | 3.2 | 11.3 | 0.00 | 0.10 | 0.00 | 84 | 1065.8 |
| 20260831185449 | 18 | 180 | 6.4 | 12.9 | 0.00 | 0.10 | 0.00 | 83 | 1059.5 |
| 20260831184949 | 18 | 157 | 1.6 | 12.9 | 0.00 | 0.10 | 0.00 | 83 | 1090.9 |
| 20260831184548 | 18 | 180 | 11.3 | 12.9 | 0.00 | 0.10 | 0.00 | 82 | 1072.1 |
| 20260831184449 | 18 | 157 | 3.2 | 9.7 | 0.00 | 0.10 | 0.00 | 82 | 1053.2 |
| 20260831183949 | 18 | 157 | 4.8 | 12.9 | 0.00 | 0.10 | 0.00 | 82 | 1065.8 |
| 20260831183449 | 18 | 202 | 4.8 | 12.9 | 0.00 | 0.10 | 0.00 | 82 | 1050.1 |
| 20260831182949 | 18 | 202 | 1.6 | 9.7 | 0.00 | 0.10 | 0.00 | 82 | 1059.5 |
| 20260831182449 | 19 | 202 | 4.8 | 11.3 | 0.00 | 0.10 | 0.00 | 82 | 1072.1 |
| 20260831181949 | 19 | 157 | 4.8 | 9.7 | 0.00 | 0.10 | 0.00 | 81 | 1075.2 |
| 20260831181449 | 19 | 202 | 4.8 | 8.0 | 0.00 | 0.10 | 0.00 | 81 | 1059.5 |
| 20260831181248 | 19 | 180 | 0.0 | 8.0 | 0.00 | 0.10 | 0.00 | 81 | 1072.1 |
| 20260831180949 | 19 | 180 | 4.8 | 11.3 | 0.00 | 0.10 | 0.00 | 81 | 1089.5 |
| 20260831180449 | 19 | 157 | 4.8 | 11.3 | 0.00 | 0.10 | 0.00 | 81 | 1028.8 |
| 20260831175949 | 19 | 157 | 4.8 | 9.7 | 0.00 | 0.10 | 0.00 | 80 | 1056.4 |
| 20260831175449 | 19 | 157 | 9.7 | 9.7 | 0.00 | 0.10 | 0.00 | 79 | 1023.5 |
| 20260831174949 | 20 | 157 | 6.4 | 6.4 | 0.00 | 0.10 | 0.00 | 79 | 1068.9 |
| 20260831174449 | 20 | 157 | 4.8 | 4.8 | 0.00 | 0.10 | 0.00 | 78 | 1080.0 |
| 20260831173948 | 20 | 180 | 0.0 | 3.2 | 0.00 | 0.10 | 0.00 | 78 | 1075.2 |
| 20260831173449 | 20 | 157 | 0.0 | 4.8 | 0.00 | 0.10 | 0.00 | 77 | 1078.4 |
| 20260831172949 | 20 | 225 | 1.6 | 4.8 | 0.00 | 0.10 | 0.00 | 77 | 1065.8 |
| 20260831172449 | 20 | 202 | 1.6 | 17.7 | 0.00 | 0.10 | 0.00 | 76 | 1065.8 |
| 20260831171949 | 21 | 202 | 3.2 | 6.4 | 0.00 | 0.10 | 0.00 | 76 | 1069.0 |
| 20260831171449 | 21 | 180 | 0.0 | 6.4 | 0.00 | 0.10 | 0.00 | 76 | 1059.5 |
| 20260831170949 | 21 | 135 | 3.2 | 8.0 | 0.00 | 0.10 | 0.00 | 76 | 1062.7 |
| 20260831170648 | 21 | 157 | 3.2 | 8.0 | 0.00 | 0.10 | 0.00 | 76 | 1076.8 |
| 20260831170449 | 21 | 202 | 1.6 | 8.0 | 0.00 | 0.10 | 0.00 | 76 | 1016.2 |
| 20260831165949 | 21 | 157 | 4.8 | 6.4 | 0.00 | 0.10 | 0.00 | 76 | 1043.8 |
| 20260831165449 | 21 | 202 | 1.6 | 6.4 | 0.00 | 0.10 | 0.00 | 76 | 1083.1 |
| 20260831164949 | 21 | 180 | 3.2 | 6.4 | 0.00 | 0.10 | 0.00 | 75 | 1059.5 |
| 20260831164449 | 21 | 202 | 9.7 | 9.7 | 0.00 | 0.10 | 0.00 | 75 | 1053.3 |
| 20260831163949 | 21 | 202 | 3.2 | 6.4 | 0.00 | 0.10 | 0.00 | 75 | 1069.0 |
| 20260831163449 | 22 | 225 | 3.2 | 8.0 | 0.00 | 0.10 | 0.00 | 75 | 1095.7 |
| 20260831163348 | 22 | 180 | 3.2 | 8.0 | 0.00 | 0.10 | 0.00 | 75 | 1073.8 |
| 20260831162949 | 22 | 202 | 3.2 | 9.7 | 0.00 | 0.10 | 0.00 | 75 | 1065.8 |
| 20260831162449 | 22 | 180 | 4.8 | 14.5 | 0.00 | 0.10 | 0.00 | 75 | 1062.7 |
| 20260831161949 | 22 | 202 | 3.2 | 9.7 | 0.00 | 0.10 | 0.00 | 76 | 1065.8 |
| 20260831161449 | 22 | 180 | 4.8 | 8.0 | 0.00 | 0.10 | 0.00 | 76 | 1078.4 |
| 20260831160949 | 22 | 202 | 3.2 | 8.0 | 0.00 | 0.10 | 0.00 | 76 | 1046.9 |
| 20260831160449 | 22 | 225 | 8.0 | 9.7 | 0.00 | 0.10 | 0.00 | 76 | 1078.4 |
| 20260831160048 | 22 | 180 | 3.2 | 11.3 | 0.00 | 0.10 | 0.00 | 75 | 1062.7 |
| 20260831155949 | 22 | 180 | 6.4 | 11.3 | 0.00 | 0.10 | 0.00 | 75 | 1075.2 |
| 20260831155449 | 22 | 157 | 4.8 | 9.7 | 0.00 | 0.10 | 0.00 | 75 | 1056.4 |
| 20260831154949 | 22 | 180 | 3.2 | 9.7 | 0.00 | 0.10 | 0.00 | 76 | 1031.9 |
| 20260831154449 | 22 | 180 | 3.2 | 9.7 | 0.00 | 0.10 | 0.00 | 76 | 1059.5 |
| 20260831153949 | 22 | 157 | 4.8 | 12.9 | 0.00 | 0.10 | 0.00 | 76 | 1030.5 |
| 20260831153449 | 22 | 180 | 4.8 | 17.7 | 0.00 | 0.10 | 0.00 | 76 | 1056.4 |
| 20260831152949 | 22 | 180 | 12.9 | 17.7 | 0.05 | 0.10 | 0.00 | 77 | 1068.9 |
| 20260831152748 | 22 | 180 | 9.7 | 17.7 | 0.05 | 0.10 | 0.00 | 77 | 1093.9 |
| 20260831152449 | 22 | 157 | 11.3 | 16.1 | 0.05 | 0.10 | 0.00 | 77 | 1076.8 |
| 20260831151949 | 22 | 180 | 4.8 | 12.9 | 0.05 | 0.10 | 0.00 | 78 | 1042.0 |
| 20260831151449 | 21 | 202 | 3.2 | 9.7 | 0.05 | 0.10 | 0.00 | 77 | 1021.2 |
| 20260831150949 | 21 | 180 | 6.4 | 12.9 | 0.05 | 0.10 | 0.00 | 77 | 1043.8 |
| 20260831150449 | 21 | 180 | 6.4 | 12.9 | 0.10 | 0.10 | 0.00 | 77 | 1072.1 |
| 20260831145949 | 21 | 135 | 0.0 | 9.7 | 0.10 | 0.10 | 0.00 | 77 | 1075.3 |
| 20260831145448 | 21 | 202 | 4.8 | 12.9 | 0.10 | 0.10 | 0.00 | 77 | 1075.3 |
| 20260831144949 | 21 | 112 | 12.9 | 16.1 | 0.10 | 0.10 | 0.00 | 76 | 1031.9 |
| 20260831144449 | 21 | 180 | 12.9 | 16.1 | 0.10 | 0.10 | 0.00 | 74 | 1047.6 |
| 20260831143949 | 21 | 157 | 9.7 | 16.1 | 0.10 | 0.10 | 0.00 | 73 | 1072.1 |
| 20260831143449 | 21 | 135 | 4.8 | 14.5 | 0.05 | 0.05 | 0.00 | 72 | 1056.4 |
| 20260831142949 | 21 | 157 | 3.2 | 6.4 | 0.05 | 0.05 | 0.00 | 70 | 1065.8 |
| 20260831142449 | 22 | 157 | 4.8 | 6.4 | 0.05 | 0.05 | 0.00 | 69 | 1059.2 |
| 20260831142148 | 22 | 157 | 3.2 | 6.4 | 0.05 | 0.05 | 0.00 | 69 | 1092.1 |
| 20260831141949 | 22 | 180 | 4.8 | 6.4 | 0.05 | 0.05 | 0.00 | 69 | 1092.9 |
| 20260831141449 | 22 | 202 | 4.8 | 9.7 | 0.05 | 0.05 | 0.00 | 69 | 1062.7 |
| 20260831140949 | 22 | 180 | 3.2 | 8.0 | 0.05 | 0.05 | 0.00 | 68 | 1056.4 |
| 20260831140449 | 22 | 180 | 3.2 | 8.0 | 0.00 | 0.00 | 0.00 | 67 | 1072.1 |
| 20260831135949 | 23 | 157 | 6.4 | 6.4 | 0.00 | 0.00 | 0.00 | 66 | 1084.6 |
| 20260831135450 | 23 | 180 | 3.2 | 4.8 | 0.00 | 0.00 | 0.00 | 66 | 1084.7 |
| 20260831134949 | 23 | 180 | 3.2 | 4.8 | 0.00 | 0.00 | 0.00 | 66 | 1073.7 |
| 20260831134848 | 23 | 157 | 3.2 | 3.2 | 0.00 | 0.00 | 0.00 | 66 | 1079.9 |
| 20260831134449 | 23 | 180 | 0.0 | 3.2 | 0.00 | 0.00 | 0.00 | 66 | 1079.9 |
| 20260831133949 | 23 | 225 | 0.0 | 1.6 | 0.00 | 0.00 | 0.00 | 65 | 1069.0 |
| 20260831133449 | 22 | 157 | 0.0 | 3.2 | 0.00 | 0.00 | 0.00 | 65 | 1056.4 |
| 20260831132949 | 22 | 22 | 0.0 | 6.4 | 0.00 | 0.00 | 0.00 | 65 | 1068.9 |
| 20260831132449 | 23 | 180 | 4.8 | 4.8 | 0.00 | 0.00 | 0.00 | 65 | 1072.1 |
| 20260831131949 | 22 | 180 | 4.8 | 6.4 | 0.00 | 0.00 | 0.00 | 64 | 1075.2 |
| 20260831131548 | 22 | 225 | 4.8 | 4.8 | 0.00 | 0.00 | 0.00 | 64 | 1061.0 |
| 20260831131449 | 22 | 247 | 0.0 | 8.0 | 0.00 | 0.00 | 0.00 | 63 | 1046.9 |
| 20260831130949 | 23 | 180 | 8.0 | 8.0 | 0.00 | 0.00 | 0.00 | 63 | 1040.6 |
| 20260831130449 | 23 | 157 | 8.0 | 12.9 | 0.00 | 0.00 | 0.00 | 61 | 1072.1 |
| 20260831125949 | 23 | 180 | 11.3 | 11.3 | 0.00 | 0.00 | 0.00 | 60 | 1053.2 |
| 20260831125449 | 23 | 202 | 8.0 | 19.3 | 0.00 | 0.00 | 0.00 | 58 | 1053.2 |
| 20260831124949 | 24 | 202 | 12.9 | 27.4 | 0.00 | 0.00 | 0.00 | 57 | 1090.9 |
| 20260831124449 | 25 | 202 | 17.7 | 27.4 | 0.00 | 0.00 | 0.00 | 54 | 1081.5 |
| 20260831124248 | 25 | 225 | 16.1 | 33.8 | 0.00 | 0.00 | 0.00 | 53 | 1075.3 |
| 20260831123949 | 26 | 225 | 27.4 | 33.8 | 0.00 | 0.00 | 0.00 | 51 | 1087.8 |
| 20260831123449 | 26 | 225 | 22.5 | 22.5 | 0.00 | 0.00 | 0.00 | 48 | 1065.8 |
| 20260831122949 | 27 | 225 | 11.3 | 22.5 | 0.00 | 0.00 | 0.00 | 47 | 1084.8 |
| 20260831122449 | 27 | 247 | 14.5 | 14.5 | 0.00 | 0.00 | 0.00 | 46 | 1035.1 |
| 20260831121950 | 27 | 202 | 4.8 | 11.3 | 0.00 | 0.00 | 0.00 | 46 | 1042.9 |
| 20260831121449 | 27 | 180 | 1.6 | 8.0 | 0.00 | 0.00 | 0.00 | 45 | 1068.9 |
| 20260831120948 | 28 | 202 | 3.2 | 8.0 | 0.00 | 0.00 | 0.00 | 44 | 1075.3 |
| 20260831120449 | 28 | 202 | 4.8 | 9.7 | 0.00 | 0.00 | 0.00 | 44 | 988.6 |
| 20260831115949 | 28 | 225 | 4.8 | 6.4 | 0.00 | 0.00 | 0.00 | 43 | 1080.5 |
| 20260831115449 | 28 | 202 | 3.2 | 4.8 | 0.00 | 0.00 | 0.00 | 43 | 1062.6 |
| 20260831114949 | 29 | 225 | 4.8 | 8.0 | 0.00 | 0.00 | 0.00 | 42 | 1065.8 |
| 20260831114449 | 29 | 202 | 6.4 | 9.7 | 0.00 | 0.00 | 0.00 | 42 | 1078.4 |
| 20260831113949 | 29 | 157 | 6.4 | 9.7 | 0.00 | 0.00 | 0.00 | 42 | 1056.4 |
| 20260831113648 | 30 | 202 | 4.8 | 9.7 | 0.00 | 0.00 | 0.00 | 42 | 1056.4 |
| 20260831113449 | 30 | 157 | 6.4 | 9.7 | 0.00 | 0.00 | 0.00 | 41 | 1050.1 |
| 20260831112949 | 30 | 225 | 4.8 | 9.7 | 0.00 | 0.00 | 0.00 | 41 | 1065.8 |
| 20260831112449 | 30 | 157 | 3.2 | 9.7 | 0.00 | 0.00 | 0.00 | 41 | 1061.1 |
| 20260831111949 | 30 | 225 | 6.4 | 9.7 | 0.00 | 0.00 | 0.00 | 40 | 1062.7 |
| 20260831111449 | 31 | 202 | 11.3 | 17.7 | 0.00 | 0.00 | 0.00 | 40 | 1097.2 |
| 20260831110949 | 31 | 202 | 6.4 | 9.7 | 0.00 | 0.00 | 0.00 | 40 | 1048.6 |
| 20260831110449 | 31 | 202 | 3.2 | 14.5 | 0.00 | 0.00 | 0.00 | 40 | 1086.3 |
| 20260831110348 | 31 | 180 | 8.0 | 17.7 | 0.00 | 0.00 | 0.00 | 40 | 1081.6 |
| 20260831105949 | 31 | 135 | 14.5 | 17.7 | 0.00 | 0.00 | 0.00 | 40 | 1078.5 |
| 20260831105449 | 31 | 157 | 11.3 | 12.9 | 0.00 | 0.00 | 0.00 | 41 | 1073.7 |
| 20260831104950 | 31 | 180 | 3.2 | 12.9 | 0.00 | 0.00 | 0.00 | 42 | 1065.8 |
| 20260831104450 | 30 | 225 | 8.0 | 17.7 | 0.00 | 0.00 | 0.00 | 41 | 1086.2 |
| 20260831103949 | 30 | 180 | 4.8 | 16.1 | 0.00 | 0.00 | 0.00 | 41 | 1058.6 |
| 20260831103449 | 31 | 180 | 3.2 | 12.9 | 0.00 | 0.00 | 0.00 | 40 | 1065.8 |
| 20260831103048 | 31 | 270 | 9.7 | 16.1 | 0.00 | 0.00 | 0.00 | 40 | 1080.0 |
| 20260831102949 | 31 | 270 | 4.8 | 17.7 | 0.00 | 0.00 | 0.00 | 40 | 1079.9 |
| 20260831102449 | 32 | 180 | 6.4 | 11.3 | 0.00 | 0.00 | 0.00 | 40 | 1031.9 |
| 20260831101950 | 31 | 135 | 9.7 | 12.9 | 0.00 | 0.00 | 0.00 | 41 | 1072.1 |
| 20260831101450 | 31 | 157 | 8.0 | 12.9 | 0.00 | 0.00 | 0.00 | 41 | 1087.8 |
| 20260831100949 | 31 | 157 | 4.8 | 16.1 | 0.00 | 0.00 | 0.00 | 41 | 1083.1 |
| 20260831100449 | 31 | 157 | 16.1 | 16.1 | 0.00 | 0.00 | 0.00 | 42 | 1046.9 |
| 20260831095949 | 31 | 202 | 9.7 | 11.3 | 0.00 | 0.00 | 0.00 | 42 | 1019.3 |
| 20260831095748 | 31 | 180 | 9.7 | 14.5 | 0.00 | 0.00 | 0.00 | 42 | 1053.2 |
| 20260831095450 | 31 | 180 | 3.2 | 14.5 | 0.00 | 0.00 | 0.00 | 42 | 1047.8 |
| 20260831094950 | 30 | 180 | 9.7 | 16.1 | 0.00 | 0.00 | 0.00 | 42 | 1011.4 |
| 20260831094450 | 30 | 157 | 9.7 | 17.7 | 0.00 | 0.00 | 0.00 | 42 | 1010.4 |
| 20260831093949 | 30 | 180 | 8.0 | 12.9 | 0.00 | 0.00 | 0.00 | 43 | 1078.4 |
| 20260831093449 | 30 | 135 | 3.2 | 12.9 | 0.00 | 0.00 | 0.00 | 43 | 1052.2 |
| 20260831092950 | 30 | 135 | 4.8 | 17.7 | 0.00 | 0.00 | 0.00 | 42 | 1076.7 |
| 20260831092448 | 30 | 202 | 1.6 | 35.4 | 0.00 | 0.00 | 0.00 | 42 | 1062.7 |
| 20260831091949 | 30 | 247 | 0.0 | 16.1 | 0.00 | 0.00 | 0.00 | 41 | 1054.8 |
| 20260831091450 | 31 | 90 | 12.9 | 17.7 | 0.00 | 0.00 | 0.00 | 41 | 1047.6 |
| 20260831090949 | 31 | 0 | 0.0 | 9.7 | 0.00 | 0.00 | 0.00 | 40 | 1069.0 |
| 20260831090449 | 31 | 135 | 3.2 | 11.3 | 0.00 | 0.00 | 0.00 | 40 | 1073.0 |
| 20260831085949 | 31 | 135 | 6.4 | 11.3 | 0.00 | 0.00 | 0.00 | 40 | 1071.4 |
| 20260831085449 | 32 | 112 | 4.8 | 12.9 | 0.00 | 0.00 | 0.00 | 40 | 1058.2 |
| 20260831085149 | 32 | 112 | 12.9 | 12.9 | 0.00 | 0.00 | 0.00 | 40 | 1059.5 |
| 20260831084949 | 32 | 157 | 9.7 | 9.7 | 0.00 | 0.00 | 0.00 | 40 | 1026.6 |
| 20260831084450 | 32 | 157 | 8.0 | 16.1 | 0.00 | 0.00 | 0.00 | 40 | 1056.4 |
| 20260831083950 | 32 | 225 | 4.8 | 14.5 | 0.00 | 0.00 | 0.00 | 40 | 1065.5 |
| 20260831083449 | 32 | 157 | 0.0 | 6.4 | 0.00 | 0.00 | 0.00 | 40 | 1079.1 |
| 20260831082950 | 32 | 67 | 4.8 | 12.9 | 0.00 | 0.00 | 0.00 | 40 | 1030.3 |
| 20260831082450 | 32 | 157 | 3.2 | 8.0 | 0.00 | 0.00 | 0.00 | 39 | 1060.3 |
| 20260831081950 | 32 | 112 | 6.4 | 12.9 | 0.00 | 0.00 | 0.00 | 39 | 1061.4 |
| 20260831081849 | 32 | 90 | 9.7 | 12.9 | 0.00 | 0.00 | 0.00 | 39 | 1042.2 |
| 20260831081450 | 32 | 112 | 12.9 | 12.9 | 0.00 | 0.00 | 0.00 | 39 | 1076.2 |
| 20260831080450 | 33 | 135 | 0.0 | 11.3 | 0.00 | 0.00 | 0.00 | 38 | 1055.7 |
| 20260831075950 | 34 | 112 | 6.4 | 9.7 | 0.00 | 0.00 | 0.00 | 38 | 1035.0 |
| 20260831075450 | 34 | 112 | 6.4 | 6.4 | 0.00 | 0.00 | 0.00 | 39 | 1054.7 |